| time (UTC) | temp C | wind direction | speed KPH | gust KPH | rain 1hr cm | rain 24hr cm | rain mn cm | humidity % | barometer mb |
| 20260508062046 | 13 | 266 | 1.6 | 4.8 | 0.00 | 0.00 | 0.00 | 73 | 1004.6 |
| 20260508061505 | 13 | 267 | 3.2 | 4.8 | 0.00 | 0.00 | 0.00 | 73 | 1004.4 |
| 20260508061056 | 13 | 267 | 1.6 | 4.8 | 0.00 | 0.00 | 0.00 | 73 | 1004.5 |
| 20260508060546 | 13 | 267 | 1.6 | 3.2 | 0.00 | 0.00 | 0.00 | 72 | 1004.6 |
| 20260508060002 | 13 | 267 | 0.0 | 4.8 | 0.00 | 0.00 | 0.00 | 72 | 1004.5 |
| 20260508055553 | 13 | 267 | 1.6 | 4.8 | 0.00 | 0.00 | 0.00 | 72 | 1004.6 |
| 20260508055041 | 13 | 266 | 1.6 | 3.2 | 0.00 | 0.00 | 0.00 | 72 | 1004.6 |
| 20260508054503 | 13 | 266 | 1.6 | 3.2 | 0.00 | 0.00 | 0.00 | 72 | 1004.5 |
| 20260508054055 | 13 | 266 | 1.6 | 8.0 | 0.00 | 0.00 | 0.00 | 72 | 1004.5 |
| 20260508053542 | 13 | 266 | 1.6 | 8.0 | 0.00 | 0.00 | 0.00 | 72 | 1004.7 |
| 20260508053004 | 13 | 261 | 1.6 | 6.4 | 0.00 | 0.00 | 0.00 | 72 | 1004.4 |
| 20260508052552 | 13 | 235 | 1.6 | 6.4 | 0.00 | 0.00 | 0.00 | 72 | 1004.5 |
| 20260508052042 | 13 | 311 | 1.6 | 4.8 | 0.00 | 0.00 | 0.00 | 72 | 1004.5 |
| 20260508051504 | 13 | 296 | 1.6 | 4.8 | 0.00 | 0.00 | 0.00 | 72 | 1004.5 |
| 20260508051053 | 13 | 296 | 1.6 | 11.3 | 0.00 | 0.00 | 0.00 | 72 | 1004.4 |
| 20260508050542 | 14 | 281 | 3.2 | 11.3 | 0.00 | 0.00 | 0.00 | 73 | 1004.5 |
| 20260508045549 | 14 | 255 | 1.6 | 6.4 | 0.00 | 0.00 | 0.00 | 73 | 1004.5 |
| 20260508045040 | 14 | 226 | 1.6 | 4.8 | 0.00 | 0.00 | 0.00 | 73 | 1004.5 |
| 20260508044605 | 14 | 226 | 1.6 | 6.4 | 0.00 | 0.00 | 0.00 | 74 | 1004.5 |
| 20260508044050 | 15 | 226 | 3.2 | 6.4 | 0.00 | 0.00 | 0.00 | 74 | 1004.5 |
| 20260508043537 | 15 | 255 | 1.6 | 6.4 | 0.00 | 0.00 | 0.00 | 74 | 1004.6 |
| 20260508043007 | 15 | 269 | 3.2 | 6.4 | 0.00 | 0.00 | 0.00 | 73 | 1004.5 |
| 20260508042558 | 15 | 248 | 1.6 | 6.4 | 0.00 | 0.00 | 0.00 | 73 | 1004.5 |
| 20260508042046 | 15 | 244 | 3.2 | 6.4 | 0.00 | 0.00 | 0.00 | 72 | 1004.4 |
| 20260508041509 | 16 | 275 | 3.2 | 6.4 | 0.00 | 0.00 | 0.00 | 71 | 1004.3 |
| 20260508041056 | 16 | 13 | 0.0 | 0.0 | 0.00 | 0.00 | 0.00 | 71 | 1004.3 |
| 20260508040545 | 16 | 13 | 0.0 | 0.0 | 0.00 | 0.00 | 0.00 | 69 | 1004.2 |
| 20260508040004 | 16 | 13 | 0.0 | 0.0 | 0.00 | 0.00 | 0.00 | 68 | 1004.0 |
| 20260508035555 | 16 | 13 | 0.0 | 0.0 | 0.00 | 0.00 | 0.00 | 68 | 1004.0 |
| 20260508035042 | 16 | 13 | 0.0 | 0.0 | 0.00 | 0.00 | 0.00 | 68 | 1003.9 |
| 20260508034607 | 16 | 13 | 0.0 | 0.0 | 0.00 | 0.00 | 0.00 | 68 | 1003.9 |
| 20260508034048 | 16 | 13 | 0.0 | 0.0 | 0.00 | 0.00 | 0.00 | 68 | 1003.9 |
| 20260508033535 | 17 | 13 | 0.0 | 0.0 | 0.00 | 0.00 | 0.00 | 68 | 1003.9 |
| 20260508033058 | 17 | 13 | 0.0 | 0.0 | 0.00 | 0.00 | 0.00 | 67 | 1003.8 |
| 20260508032547 | 17 | 13 | 0.0 | 0.0 | 0.00 | 0.00 | 0.00 | 66 | 1003.8 |
| 20260508032035 | 17 | 13 | 0.0 | 0.0 | 0.00 | 0.00 | 0.00 | 66 | 1003.8 |
| 20260508031604 | 17 | 13 | 0.0 | 0.0 | 0.00 | 0.00 | 0.00 | 65 | 1003.7 |
| 20260508031046 | 17 | 13 | 0.0 | 0.0 | 0.00 | 0.00 | 0.00 | 65 | 1003.8 |
| 20260508030535 | 17 | 13 | 0.0 | 0.0 | 0.00 | 0.00 | 0.00 | 65 | 1003.7 |
| 20260508025544 | 17 | 13 | 0.0 | 0.0 | 0.00 | 0.00 | 0.00 | 65 | 1003.6 |
| 20260508025032 | 17 | 13 | 0.0 | 0.0 | 0.00 | 0.00 | 0.00 | 65 | 1003.6 |
| 20260508024505 | 17 | 13 | 0.0 | 0.0 | 0.00 | 0.00 | 0.00 | 64 | 1003.7 |
| 20260508024053 | 18 | 13 | 0.0 | 0.0 | 0.00 | 0.00 | 0.00 | 64 | 1003.6 |
| 20260508023542 | 18 | 13 | 0.0 | 0.0 | 0.00 | 0.00 | 0.00 | 62 | 1003.8 |
| 20260508023002 | 18 | 13 | 0.0 | 1.6 | 0.00 | 0.00 | 0.00 | 61 | 1003.7 |
| 20260508022553 | 18 | 13 | 0.0 | 1.6 | 0.00 | 0.00 | 0.00 | 61 | 1003.7 |
| 20260508022041 | 18 | 13 | 0.0 | 1.6 | 0.00 | 0.00 | 0.00 | 61 | 1003.6 |
| 20260508021510 | 18 | 13 | 0.0 | 4.8 | 0.00 | 0.00 | 0.00 | 61 | 1003.6 |
| 20260508021100 | 18 | 13 | 1.6 | 4.8 | 0.00 | 0.00 | 0.00 | 60 | 1003.7 |
| 20260508020551 | 18 | 13 | 0.0 | 3.2 | 0.00 | 0.00 | 0.00 | 60 | 1003.7 |
| 20260508020007 | 18 | 13 | 0.0 | 3.2 | 0.00 | 0.00 | 0.00 | 60 | 1003.7 |
| 20260508015558 | 19 | 5 | 0.0 | 1.6 | 0.00 | 0.00 | 0.00 | 60 | 1003.7 |
| 20260508015047 | 19 | 5 | 0.0 | 3.2 | 0.00 | 0.00 | 0.00 | 59 | 1003.6 |
| 20260508014512 | 19 | 19 | 0.0 | 1.6 | 0.00 | 0.00 | 0.00 | 59 | 1003.7 |
| 20260508014101 | 19 | 25 | 0.0 | 4.8 | 0.00 | 0.00 | 0.00 | 57 | 1003.7 |
| 20260508013546 | 20 | 28 | 1.6 | 4.8 | 0.00 | 0.00 | 0.00 | 58 | 1003.8 |
| 20260508013007 | 20 | 15 | 1.6 | 4.8 | 0.00 | 0.00 | 0.00 | 57 | 1003.8 |
| 20260508012601 | 20 | 360 | 1.6 | 4.8 | 0.00 | 0.00 | 0.00 | 56 | 1003.9 |
| 20260508012046 | 20 | 290 | 0.0 | 4.8 | 0.00 | 0.00 | 0.00 | 56 | 1003.9 |
| 20260508011506 | 20 | 282 | 1.6 | 6.4 | 0.00 | 0.00 | 0.00 | 55 | 1004.0 |
| 20260508011058 | 20 | 266 | 1.6 | 6.4 | 0.00 | 0.00 | 0.00 | 51 | 1003.9 |
| 20260508010545 | 20 | 66 | 0.0 | 0.0 | 0.00 | 0.00 | 0.00 | 53 | 1004.0 |
| 20260508010006 | 21 | 66 | 0.0 | 4.8 | 0.00 | 0.00 | 0.00 | 55 | 1004.1 |
| 20260508005558 | 21 | 65 | 0.0 | 4.8 | 0.00 | 0.00 | 0.00 | 52 | 1004.0 |
| 20260508005043 | 20 | 80 | 1.6 | 4.8 | 0.00 | 0.00 | 0.00 | 54 | 1004.1 |
| 20260508004503 | 20 | 90 | 0.0 | 6.4 | 0.00 | 0.00 | 0.00 | 53 | 1004.1 |
| 20260508004053 | 20 | 11 | 1.6 | 6.4 | 0.00 | 0.00 | 0.00 | 54 | 1004.1 |
| 20260508003540 | 20 | 22 | 3.2 | 6.4 | 0.00 | 0.00 | 0.00 | 54 | 1004.2 |
| 20260508003001 | 20 | 59 | 1.6 | 6.4 | 0.00 | 0.00 | 0.00 | 53 | 1004.2 |
| 20260508002551 | 20 | 94 | 0.0 | 6.4 | 0.00 | 0.00 | 0.00 | 54 | 1004.3 |
| 20260508002040 | 20 | 317 | 1.6 | 6.4 | 0.00 | 0.00 | 0.00 | 54 | 1004.3 |
| 20260508001604 | 20 | 132 | 0.0 | 6.4 | 0.00 | 0.00 | 0.00 | 56 | 1004.3 |
| 20260508001051 | 20 | 327 | 1.6 | 6.4 | 0.00 | 0.00 | 0.00 | 55 | 1004.3 |
| 20260508000538 | 20 | 355 | 1.6 | 6.4 | 0.00 | 0.00 | 0.00 | 56 | 1004.4 |
| 20260508000007 | 20 | 41 | 0.0 | 8.0 | 0.00 | 0.00 | 0.00 | 54 | 1004.4 |
| 20260507235558 | 20 | 46 | 1.6 | 8.0 | 0.00 | 0.00 | 0.00 | 55 | 1004.4 |
| 20260507235046 | 20 | 121 | 1.6 | 9.7 | 0.00 | 0.00 | 0.00 | 54 | 1004.6 |
| 20260507234505 | 20 | 63 | 3.2 | 9.7 | 0.00 | 0.00 | 0.00 | 54 | 1004.6 |
| 20260507234055 | 20 | 139 | 3.2 | 9.7 | 0.00 | 0.00 | 0.00 | 54 | 1004.6 |
| 20260507233544 | 20 | 34 | 3.2 | 8.0 | 0.00 | 0.00 | 0.00 | 56 | 1004.7 |
| 20260507233005 | 20 | 44 | 3.2 | 9.7 | 0.00 | 0.00 | 0.00 | 59 | 1004.7 |
| 20260507232556 | 20 | 25 | 3.2 | 9.7 | 0.00 | 0.00 | 0.00 | 57 | 1004.8 |
| 20260507232044 | 20 | 103 | 3.2 | 8.0 | 0.00 | 0.00 | 0.00 | 56 | 1004.8 |
| 20260507231503 | 20 | 18 | 1.6 | 6.4 | 0.00 | 0.00 | 0.00 | 57 | 1005.0 |
| 20260507231054 | 20 | 96 | 0.0 | 8.0 | 0.00 | 0.00 | 0.00 | 58 | 1005.0 |
| 20260507230542 | 20 | 73 | 3.2 | 8.0 | 0.00 | 0.00 | 0.00 | 57 | 1005.1 |
| 20260507230002 | 20 | 26 | 3.2 | 8.0 | 0.00 | 0.00 | 0.00 | 56 | 1005.2 |
| 20260507225552 | 20 | 113 | 1.6 | 8.0 | 0.00 | 0.00 | 0.00 | 55 | 1005.2 |
| 20260507225039 | 20 | 333 | 3.2 | 8.0 | 0.00 | 0.00 | 0.00 | 55 | 1005.4 |
| 20260507224602 | 20 | 338 | 3.2 | 8.0 | 0.00 | 0.00 | 0.00 | 54 | 1005.4 |
| 20260507224051 | 20 | 47 | 3.2 | 9.7 | 0.00 | 0.00 | 0.00 | 56 | 1005.4 |
| 20260507223539 | 19 | 51 | 3.2 | 12.9 | 0.00 | 0.00 | 0.00 | 56 | 1005.6 |
| 20260507223001 | 20 | 326 | 6.4 | 12.9 | 0.00 | 0.00 | 0.00 | 54 | 1005.6 |
| 20260507222551 | 20 | 41 | 3.2 | 8.0 | 0.00 | 0.00 | 0.00 | 55 | 1005.6 |
| 20260507222038 | 20 | 55 | 3.2 | 11.3 | 0.00 | 0.00 | 0.00 | 53 | 1005.7 |
| 20260507221508 | 20 | 14 | 1.6 | 11.3 | 0.00 | 0.00 | 0.00 | 53 | 1005.8 |
| 20260507221059 | 20 | 350 | 1.6 | 8.0 | 0.00 | 0.00 | 0.00 | 56 | 1005.8 |
| 20260507220547 | 19 | 81 | 3.2 | 8.0 | 0.00 | 0.00 | 0.00 | 55 | 1006.0 |
| 20260507220005 | 19 | 271 | 3.2 | 9.7 | 0.00 | 0.00 | 0.00 | 54 | 1006.0 |
| 20260507215557 | 19 | 292 | 4.8 | 9.7 | 0.00 | 0.00 | 0.00 | 54 | 1006.0 |
| 20260507215045 | 18 | 28 | 0.0 | 4.8 | 0.00 | 0.00 | 0.00 | 56 | 1006.0 |
| 20260507214515 | 18 | 48 | 3.2 | 6.4 | 0.00 | 0.00 | 0.00 | 59 | 1006.0 |
| 20260507214003 | 18 | 49 | 1.6 | 9.7 | 0.00 | 0.00 | 0.00 | 56 | 1006.5 |
| 20260507213553 | 18 | 53 | 4.8 | 9.7 | 0.00 | 0.00 | 0.00 | 56 | 1006.2 |
| 20260507213013 | 18 | 36 | 3.2 | 4.8 | 0.00 | 0.00 | 0.00 | 60 | 1006.3 |
| 20260507212502 | 18 | 33 | 0.0 | 11.3 | 0.00 | 0.00 | 0.00 | 55 | 1006.2 |
| 20260507212053 | 18 | 39 | 3.2 | 11.3 | 0.00 | 0.00 | 0.00 | 55 | 1006.3 |
| 20260507211514 | 18 | 32 | 0.0 | 8.0 | 0.00 | 0.00 | 0.00 | 57 | 1006.4 |
| 20260507211002 | 18 | 331 | 1.6 | 8.0 | 0.00 | 0.00 | 0.00 | 55 | 1006.4 |
| 20260507210556 | 18 | 9 | 0.0 | 11.3 | 0.00 | 0.00 | 0.00 | 57 | 1006.5 |
| 20260507210007 | 18 | 360 | 6.4 | 11.3 | 0.00 | 0.00 | 0.00 | 59 | 1006.6 |
| 20260507205559 | 18 | 30 | 6.4 | 11.3 | 0.00 | 0.00 | 0.00 | 56 | 1006.6 |
| 20260507205049 | 18 | 42 | 3.2 | 8.0 | 0.00 | 0.00 | 0.00 | 59 | 1006.7 |
| 20260507204504 | 18 | 61 | 1.6 | 9.7 | 0.00 | 0.00 | 0.00 | 60 | 1006.7 |
| 20260507204054 | 18 | 86 | 0.0 | 9.7 | 0.00 | 0.00 | 0.00 | 58 | 1006.8 |
| 20260507203541 | 18 | 18 | 4.8 | 9.7 | 0.00 | 0.00 | 0.00 | 57 | 1006.9 |
| 20260507203027 | 18 | 348 | 4.8 | 9.7 | 0.00 | 0.00 | 0.00 | 57 | 1006.9 |
| 20260507202601 | 18 | 47 | 3.2 | 9.7 | 0.00 | 0.00 | 0.00 | 57 | 1007.1 |
| 20260507202052 | 18 | 75 | 6.4 | 9.7 | 0.00 | 0.00 | 0.00 | 58 | 1007.1 |
| 20260507201507 | 18 | 36 | 3.2 | 9.7 | 0.00 | 0.00 | 0.00 | 57 | 1007.2 |
| 20260507201058 | 18 | 18 | 3.2 | 11.3 | 0.00 | 0.00 | 0.00 | 59 | 1007.2 |
| 20260507200546 | 17 | 46 | 3.2 | 11.3 | 0.00 | 0.00 | 0.00 | 58 | 1007.2 |
| 20260507200007 | 17 | 331 | 3.2 | 11.3 | 0.00 | 0.00 | 0.00 | 61 | 1007.4 |
| 20260507195554 | 17 | 66 | 1.6 | 9.7 | 0.00 | 0.00 | 0.00 | 59 | 1007.5 |
| 20260507195044 | 17 | 60 | 3.2 | 14.5 | 0.00 | 0.00 | 0.00 | 62 | 1007.5 |
| 20260507194504 | 17 | 9 | 3.2 | 14.5 | 0.00 | 0.00 | 0.00 | 62 | 1007.4 |
| 20260507194055 | 17 | 202 | 1.6 | 9.7 | 0.00 | 0.00 | 0.00 | 59 | 1007.5 |
| 20260507193542 | 17 | 169 | 3.2 | 12.9 | 0.00 | 0.00 | 0.00 | 62 | 1007.6 |
| 20260507193011 | 17 | 51 | 4.8 | 9.7 | 0.00 | 0.00 | 0.00 | 63 | 1007.7 |
| 20260507192553 | 16 | 276 | 1.6 | 9.7 | 0.00 | 0.00 | 0.00 | 61 | 1007.7 |
| 20260507192040 | 16 | 38 | 1.6 | 9.7 | 0.00 | 0.00 | 0.00 | 63 | 1007.8 |
| 20260507191501 | 16 | 255 | 3.2 | 12.9 | 0.00 | 0.00 | 0.00 | 63 | 1007.8 |
| 20260507191051 | 16 | 14 | 4.8 | 11.3 | 0.00 | 0.00 | 0.00 | 64 | 1007.8 |
| 20260507190539 | 16 | 313 | 3.2 | 12.9 | 0.00 | 0.00 | 0.00 | 63 | 1007.9 |
| 20260507190059 | 16 | 355 | 6.4 | 12.9 | 0.00 | 0.00 | 0.00 | 63 | 1007.9 |
| 20260507185547 | 15 | 355 | 1.6 | 8.0 | 0.00 | 0.00 | 0.00 | 64 | 1008.0 |
| 20260507185036 | 16 | 360 | 4.8 | 12.9 | 0.00 | 0.00 | 0.00 | 64 | 1008.1 |
| 20260507184559 | 16 | 299 | 3.2 | 12.9 | 0.00 | 0.00 | 0.00 | 64 | 1008.2 |
| 20260507184047 | 16 | 26 | 3.2 | 11.3 | 0.00 | 0.00 | 0.00 | 66 | 1008.2 |
| 20260507183539 | 15 | 50 | 6.4 | 11.3 | 0.00 | 0.00 | 0.00 | 65 | 1008.2 |
| 20260507183059 | 15 | 40 | 4.8 | 8.0 | 0.00 | 0.00 | 0.00 | 65 | 1008.1 |
| 20260507182546 | 15 | 5 | 0.0 | 8.0 | 0.00 | 0.00 | 0.00 | 66 | 1008.2 |
| 20260507182034 | 15 | 58 | 4.8 | 9.7 | 0.00 | 0.00 | 0.00 | 66 | 1008.3 |
| 20260507181503 | 14 | 51 | 3.2 | 9.7 | 0.00 | 0.00 | 0.00 | 68 | 1008.4 |
| 20260507181054 | 14 | 109 | 0.0 | 6.4 | 0.00 | 0.00 | 0.00 | 68 | 1008.5 |
| 20260507180541 | 13 | 53 | 3.2 | 6.4 | 0.00 | 0.00 | 0.00 | 67 | 1008.6 |
| 20260507180103 | 13 | 355 | 1.6 | 6.4 | 0.00 | 0.00 | 0.00 | 67 | 1008.7 |
| 20260507175549 | 13 | 327 | 4.8 | 8.0 | 0.00 | 0.00 | 0.00 | 69 | 1008.6 |
| 20260507175038 | 13 | 42 | 4.8 | 9.7 | 0.00 | 0.00 | 0.00 | 68 | 1008.8 |
| 20260507174604 | 13 | 346 | 4.8 | 9.7 | 0.00 | 0.00 | 0.00 | 70 | 1008.8 |
| 20260507174048 | 13 | 309 | 4.8 | 8.0 | 0.00 | 0.00 | 0.00 | 68 | 1008.8 |
| 20260507173535 | 13 | 355 | 3.2 | 9.7 | 0.00 | 0.00 | 0.00 | 68 | 1008.8 |
| 20260507173013 | 13 | 355 | 4.8 | 9.7 | 0.00 | 0.00 | 0.00 | 70 | 1008.8 |
| 20260507172558 | 13 | 119 | 0.0 | 4.8 | 0.00 | 0.00 | 0.00 | 72 | 1008.9 |
| 20260507172045 | 12 | 28 | 1.6 | 6.4 | 0.00 | 0.00 | 0.00 | 70 | 1008.9 |
| 20260507171505 | 12 | 313 | 0.0 | 8.0 | 0.00 | 0.00 | 0.00 | 69 | 1009.0 |
| 20260507171056 | 12 | 349 | 4.8 | 8.0 | 0.00 | 0.00 | 0.00 | 71 | 1008.9 |
| 20260507170544 | 12 | 120 | 4.8 | 8.0 | 0.00 | 0.00 | 0.00 | 70 | 1008.9 |
| 20260507170002 | 12 | 20 | 1.6 | 9.7 | 0.00 | 0.00 | 0.00 | 69 | 1008.9 |
| 20260507165552 | 12 | 38 | 3.2 | 12.9 | 0.00 | 0.00 | 0.00 | 70 | 1008.9 |
| 20260507165041 | 12 | 13 | 3.2 | 12.9 | 0.00 | 0.00 | 0.00 | 70 | 1009.0 |
| 20260507164502 | 12 | 59 | 4.8 | 12.9 | 0.00 | 0.00 | 0.00 | 71 | 1009.0 |
| 20260507164052 | 12 | 49 | 4.8 | 12.9 | 0.00 | 0.00 | 0.00 | 72 | 1009.0 |
| 20260507163540 | 12 | 61 | 4.8 | 9.7 | 0.00 | 0.00 | 0.00 | 71 | 1009.0 |
| 20260507163009 | 12 | 327 | 6.4 | 11.3 | 0.00 | 0.00 | 0.00 | 71 | 1009.0 |
| 20260507162601 | 12 | 250 | 1.6 | 6.4 | 0.00 | 0.00 | 0.00 | 72 | 1009.0 |
| 20260507162049 | 12 | 276 | 1.6 | 9.7 | 0.00 | 0.00 | 0.00 | 72 | 1009.0 |
| 20260507161509 | 11 | 9 | 4.8 | 9.7 | 0.00 | 0.00 | 0.00 | 72 | 1009.0 |
| 20260507161058 | 11 | 51 | 4.8 | 12.9 | 0.00 | 0.00 | 0.00 | 73 | 1009.0 |
| 20260507160548 | 11 | 16 | 4.8 | 12.9 | 0.00 | 0.00 | 0.00 | 73 | 1009.0 |
| 20260507160004 | 11 | 55 | 3.2 | 8.0 | 0.00 | 0.00 | 0.00 | 74 | 1009.0 |
| 20260507155553 | 11 | 48 | 1.6 | 11.3 | 0.00 | 0.00 | 0.00 | 72 | 1009.1 |
| 20260507155041 | 11 | 346 | 3.2 | 11.3 | 0.00 | 0.00 | 0.00 | 73 | 1009.1 |
| 20260507154511 | 11 | 22 | 3.2 | 11.3 | 0.00 | 0.00 | 0.00 | 73 | 1009.0 |
| 20260507154101 | 11 | 62 | 4.8 | 11.3 | 0.00 | 0.00 | 0.00 | 73 | 1009.0 |
| 20260507153550 | 11 | 28 | 3.2 | 12.9 | 0.00 | 0.00 | 0.00 | 75 | 1009.0 |
| 20260507153008 | 11 | 165 | 1.6 | 12.9 | 0.00 | 0.00 | 0.00 | 74 | 1009.0 |
| 20260507152558 | 11 | 235 | 3.2 | 9.7 | 0.00 | 0.00 | 0.00 | 75 | 1009.0 |
| 20260507152047 | 10 | 315 | 4.8 | 9.7 | 0.00 | 0.00 | 0.00 | 75 | 1009.0 |
| 20260507151516 | 10 | 286 | 0.0 | 9.7 | 0.00 | 0.00 | 0.00 | 76 | 1009.0 |
| 20260507151004 | 10 | 26 | 4.8 | 11.3 | 0.00 | 0.00 | 0.00 | 75 | 1009.0 |
| 20260507150555 | 10 | 298 | 3.2 | 8.0 | 0.00 | 0.00 | 0.00 | 75 | 1009.0 |
| 20260507150013 | 10 | 360 | 3.2 | 8.0 | 0.00 | 0.00 | 0.00 | 76 | 1009.0 |
| 20260507145502 | 10 | 42 | 4.8 | 9.7 | 0.00 | 0.00 | 0.00 | 76 | 1009.0 |
| 20260507145055 | 10 | 89 | 4.8 | 9.7 | 0.00 | 0.00 | 0.00 | 76 | 1009.0 |
| 20260507144515 | 10 | 284 | 1.6 | 8.0 | 0.00 | 0.00 | 0.00 | 76 | 1009.0 |
| 20260507144102 | 10 | 315 | 0.0 | 8.0 | 0.00 | 0.00 | 0.00 | 76 | 1009.0 |
| 20260507143551 | 10 | 250 | 3.2 | 8.0 | 0.00 | 0.00 | 0.00 | 76 | 1009.0 |
| 20260507143010 | 10 | 271 | 3.2 | 9.7 | 0.00 | 0.00 | 0.00 | 76 | 1009.0 |
| 20260507142559 | 10 | 262 | 3.2 | 9.7 | 0.00 | 0.00 | 0.00 | 76 | 1008.9 |
| 20260507142046 | 10 | 79 | 3.2 | 9.7 | 0.00 | 0.00 | 0.00 | 76 | 1008.8 |
| 20260507141508 | 10 | 35 | 0.0 | 4.8 | 0.00 | 0.00 | 0.00 | 76 | 1008.9 |
| 20260507141058 | 10 | 360 | 0.0 | 4.8 | 0.00 | 0.00 | 0.00 | 76 | 1008.8 |
| 20260507140546 | 10 | 22 | 1.6 | 4.8 | 0.00 | 0.00 | 0.00 | 76 | 1008.9 |
| 20260507140012 | 10 | 332 | 0.0 | 6.4 | 0.00 | 0.00 | 0.00 | 76 | 1008.8 |
| 20260507135502 | 10 | 355 | 3.2 | 6.4 | 0.00 | 0.00 | 0.00 | 76 | 1008.7 |
| 20260507135055 | 10 | 34 | 1.6 | 6.4 | 0.00 | 0.00 | 0.00 | 76 | 1008.7 |
| 20260507134510 | 10 | 84 | 1.6 | 6.4 | 0.00 | 0.00 | 0.00 | 76 | 1008.7 |
| 20260507134101 | 10 | 286 | 3.2 | 11.3 | 0.00 | 0.00 | 0.00 | 76 | 1008.7 |
| 20260507133549 | 10 | 281 | 0.0 | 11.3 | 0.00 | 0.00 | 0.00 | 76 | 1008.7 |
| 20260507133010 | 10 | 331 | 1.6 | 4.8 | 0.00 | 0.00 | 0.00 | 76 | 1008.5 |
| 20260507132601 | 10 | 62 | 0.0 | 4.8 | 0.00 | 0.00 | 0.00 | 76 | 1008.6 |
| 20260507132048 | 10 | 306 | 1.6 | 4.8 | 0.00 | 0.00 | 0.00 | 76 | 1008.5 |
| 20260507131518 | 10 | 348 | 0.0 | 4.8 | 0.00 | 0.00 | 0.00 | 76 | 1008.4 |
| 20260507131052 | 10 | 347 | 1.6 | 6.4 | 0.00 | 0.00 | 0.00 | 76 | 1008.4 |
| 20260507130544 | 10 | 19 | 1.6 | 6.4 | 0.00 | 0.00 | 0.00 | 76 | 1008.5 |
| 20260507130110 | 10 | 339 | 1.6 | 4.8 | 0.00 | 0.00 | 0.00 | 76 | 1008.5 |
| 20260507125550 | 10 | 336 | 0.0 | 4.8 | 0.00 | 0.00 | 0.00 | 76 | 1008.4 |
| 20260507125035 | 10 | 336 | 1.6 | 4.8 | 0.00 | 0.00 | 0.00 | 76 | 1008.4 |
| 20260507124505 | 10 | 340 | 1.6 | 4.8 | 0.00 | 0.00 | 0.00 | 76 | 1008.4 |
| 20260507124057 | 10 | 348 | 0.0 | 6.4 | 0.00 | 0.00 | 0.00 | 76 | 1008.4 |
| 20260507123546 | 10 | 348 | 1.6 | 6.4 | 0.00 | 0.00 | 0.00 | 76 | 1008.4 |
| 20260507123005 | 10 | 333 | 0.0 | 6.4 | 0.00 | 0.00 | 0.00 | 76 | 1008.5 |
| 20260507122555 | 10 | 333 | 1.6 | 6.4 | 0.00 | 0.00 | 0.00 | 76 | 1008.5 |
| 20260507122043 | 10 | 355 | 3.2 | 6.4 | 0.00 | 0.00 | 0.00 | 76 | 1008.6 |
| 20260507121505 | 10 | 19 | 3.2 | 6.4 | 0.00 | 0.00 | 0.00 | 76 | 1008.6 |
| 20260507121056 | 10 | 107 | 0.0 | 4.8 | 0.00 | 0.00 | 0.00 | 76 | 1008.6 |
| 20260507120547 | 10 | 342 | 0.0 | 8.0 | 0.00 | 0.00 | 0.00 | 76 | 1008.6 |
| 20260507120005 | 10 | 316 | 0.0 | 4.8 | 0.00 | 0.00 | 0.00 | 76 | 1008.7 |
| 20260507115553 | 10 | 313 | 0.0 | 4.8 | 0.00 | 0.00 | 0.00 | 76 | 1008.8 |
| 20260507115041 | 10 | 319 | 1.6 | 11.3 | 0.00 | 0.00 | 0.00 | 76 | 1008.8 |
| 20260507114512 | 10 | 298 | 3.2 | 11.3 | 0.00 | 0.00 | 0.00 | 76 | 1008.8 |
| 20260507114104 | 10 | 306 | 0.0 | 3.2 | 0.00 | 0.00 | 0.00 | 76 | 1008.8 |
| 20260507113556 | 10 | 306 | 0.0 | 4.8 | 0.00 | 0.00 | 0.00 | 76 | 1008.7 |
| 20260507113012 | 10 | 304 | 0.0 | 4.8 | 0.00 | 0.00 | 0.00 | 76 | 1008.8 |
| 20260507112501 | 10 | 273 | 1.6 | 4.8 | 0.00 | 0.00 | 0.00 | 76 | 1008.8 |
| 20260507112054 | 10 | 263 | 1.6 | 3.2 | 0.00 | 0.00 | 0.00 | 76 | 1008.8 |
| 20260507111512 | 10 | 56 | 0.0 | 3.2 | 0.00 | 0.00 | 0.00 | 76 | 1008.9 |
| 20260507111102 | 11 | 55 | 0.0 | 6.4 | 0.00 | 0.00 | 0.00 | 76 | 1008.9 |
| 20260507110550 | 11 | 56 | 1.6 | 8.0 | 0.00 | 0.00 | 0.00 | 76 | 1008.9 |
| 20260507110008 | 11 | 321 | 3.2 | 8.0 | 0.00 | 0.00 | 0.00 | 76 | 1008.9 |
| 20260507105559 | 11 | 340 | 1.6 | 11.3 | 0.00 | 0.00 | 0.00 | 76 | 1008.9 |
| 20260507105049 | 11 | 312 | 0.0 | 8.0 | 0.00 | 0.00 | 0.00 | 77 | 1009.0 |
| 20260507104505 | 11 | 82 | 1.6 | 8.0 | 0.00 | 0.00 | 0.00 | 76 | 1009.0 |
| 20260507104055 | 11 | 34 | 1.6 | 6.4 | 0.00 | 0.00 | 0.00 | 77 | 1009.0 |
| 20260507103544 | 11 | 46 | 0.0 | 4.8 | 0.00 | 0.00 | 0.00 | 77 | 1009.0 |
| 20260507103003 | 11 | 332 | 0.0 | 6.4 | 0.00 | 0.00 | 0.00 | 77 | 1009.0 |
| 20260507102554 | 11 | 323 | 1.6 | 6.4 | 0.00 | 0.00 | 0.00 | 76 | 1009.1 |
| 20260507102042 | 11 | 313 | 1.6 | 8.0 | 0.00 | 0.00 | 0.00 | 76 | 1009.1 |
| 20260507101503 | 11 | 304 | 1.6 | 8.0 | 0.00 | 0.00 | 0.00 | 76 | 1009.2 |
| 20260507101053 | 11 | 292 | 3.2 | 6.4 | 0.00 | 0.00 | 0.00 | 76 | 1009.1 |
| 20260507100540 | 11 | 355 | 1.6 | 9.7 | 0.00 | 0.00 | 0.00 | 76 | 1009.2 |
| 20260507100113 | 11 | 348 | 3.2 | 9.7 | 0.00 | 0.00 | 0.00 | 76 | 1009.1 |
| 20260507095550 | 11 | 72 | 3.2 | 9.7 | 0.00 | 0.00 | 0.00 | 76 | 1009.3 |
| 20260507095039 | 11 | 14 | 3.2 | 9.7 | 0.00 | 0.00 | 0.00 | 76 | 1009.3 |
| 20260507094600 | 11 | 23 | 3.2 | 8.0 | 0.00 | 0.00 | 0.00 | 76 | 1009.3 |
| 20260507094049 | 11 | 341 | 3.2 | 8.0 | 0.00 | 0.00 | 0.00 | 76 | 1009.3 |
| 20260507093537 | 11 | 334 | 0.0 | 8.0 | 0.00 | 0.00 | 0.00 | 76 | 1009.3 |
| 20260507093100 | 11 | 336 | 3.2 | 8.0 | 0.00 | 0.00 | 0.00 | 76 | 1009.3 |
| 20260507092546 | 11 | 19 | 1.6 | 8.0 | 0.00 | 0.00 | 0.00 | 76 | 1009.4 |
| 20260507092036 | 11 | 325 | 3.2 | 8.0 | 0.00 | 0.00 | 0.00 | 76 | 1009.4 |
| 20260507091559 | 11 | 16 | 3.2 | 8.0 | 0.00 | 0.00 | 0.00 | 76 | 1009.4 |
| 20260507091047 | 11 | 355 | 3.2 | 8.0 | 0.00 | 0.00 | 0.00 | 77 | 1009.6 |
| 20260507090535 | 11 | 34 | 4.8 | 8.0 | 0.00 | 0.00 | 0.00 | 77 | 1009.6 |
| 20260507090055 | 11 | 5 | 1.6 | 6.4 | 0.00 | 0.00 | 0.00 | 77 | 1009.6 |
| 20260507085544 | 11 | 343 | 0.0 | 6.4 | 0.00 | 0.00 | 0.00 | 77 | 1009.7 |
| 20260507085033 | 11 | 344 | 3.2 | 6.4 | 0.00 | 0.00 | 0.00 | 77 | 1009.7 |
| 20260507084559 | 11 | 305 | 0.0 | 4.8 | 0.00 | 0.00 | 0.00 | 77 | 1009.7 |
| 20260507084044 | 11 | 305 | 0.0 | 4.8 | 0.00 | 0.00 | 0.00 | 77 | 1009.6 |
| 20260507083533 | 11 | 334 | 0.0 | 3.2 | 0.00 | 0.00 | 0.00 | 78 | 1009.5 |
| 20260507083004 | 11 | 294 | 0.0 | 6.4 | 0.00 | 0.00 | 0.00 | 78 | 1009.5 |
| 20260507082553 | 11 | 285 | 1.6 | 6.4 | 0.00 | 0.00 | 0.00 | 78 | 1009.7 |
| 20260507082045 | 11 | 342 | 1.6 | 6.4 | 0.00 | 0.00 | 0.00 | 78 | 1009.6 |
| 20260507081501 | 11 | 355 | 1.6 | 6.4 | 0.00 | 0.00 | 0.00 | 78 | 1009.6 |
| 20260507081052 | 11 | 317 | 1.6 | 6.4 | 0.00 | 0.00 | 0.00 | 78 | 1009.5 |
| 20260507080541 | 11 | 12 | 1.6 | 8.0 | 0.00 | 0.00 | 0.00 | 78 | 1009.5 |
| 20260507075548 | 11 | 320 | 0.0 | 4.8 | 0.00 | 0.00 | 0.00 | 78 | 1009.6 |
| 20260507075037 | 11 | 355 | 3.2 | 4.8 | 0.00 | 0.00 | 0.00 | 78 | 1009.6 |
| 20260507074625 | 11 | 266 | 0.0 | 4.8 | 0.00 | 0.00 | 0.00 | 78 | 1009.6 |
| 20260507074048 | 11 | 237 | 0.0 | 4.8 | 0.00 | 0.00 | 0.00 | 78 | 1009.5 |
| 20260507073537 | 11 | 355 | 0.0 | 6.4 | 0.00 | 0.00 | 0.00 | 78 | 1009.5 |
| 20260507073008 | 11 | 355 | 3.2 | 6.4 | 0.00 | 0.00 | 0.00 | 78 | 1009.5 |
| 20260507072558 | 11 | 345 | 0.0 | 8.0 | 0.00 | 0.00 | 0.00 | 78 | 1009.6 |
| 20260507072051 | 12 | 5 | 3.2 | 12.9 | 0.00 | 0.00 | 0.00 | 78 | 1009.5 |
| 20260507071509 | 12 | 11 | 1.6 | 8.0 | 0.00 | 0.00 | 0.00 | 78 | 1009.5 |
| 20260507071057 | 12 | 5 | 3.2 | 8.0 | 0.00 | 0.00 | 0.00 | 78 | 1009.5 |
| 20260507070546 | 12 | 336 | 0.0 | 6.4 | 0.00 | 0.00 | 0.00 | 78 | 1009.4 |
| 20260507070008 | 12 | 262 | 0.0 | 4.8 | 0.00 | 0.00 | 0.00 | 78 | 1009.3 |
| 20260507065554 | 12 | 267 | 0.0 | 4.8 | 0.00 | 0.00 | 0.00 | 78 | 1009.3 |
| 20260507065043 | 12 | 267 | 1.6 | 4.8 | 0.00 | 0.00 | 0.00 | 78 | 1009.3 |
| 20260507064507 | 12 | 319 | 0.0 | 6.4 | 0.00 | 0.00 | 0.00 | 78 | 1009.4 |
| 20260507064055 | 12 | 360 | 0.0 | 6.4 | 0.00 | 0.00 | 0.00 | 77 | 1009.4 |
| 20260507063543 | 12 | 35 | 0.0 | 4.8 | 0.00 | 0.00 | 0.00 | 77 | 1009.6 |
| 20260507063005 | 12 | 307 | 0.0 | 4.8 | 0.00 | 0.00 | 0.00 | 77 | 1009.5 |
| 20260507062555 | 12 | 303 | 0.0 | 6.4 | 0.00 | 0.00 | 0.00 | 77 | 1009.5 |